Showing default

IRIDIUM 105, 41921

Orbit data source: Space-Track

IRIDIUM 105, 41921 is a payload satellite owned by Iridium (US) in LEO that was launched on Sat, 14 Jan 2017 UTC via an FALCON 9 launch vehicle from the Air Force Western Test Range (AFWTR). Payload-class satellites include a variety of spacecraft equipped with specific instruments for various scientific and technological missions. These include communications satellites like Starlink; space stations such as the ISS; scientific satellites like the Hubble; Earth observation satellites from companies like Planet Labs, Umbra, and HawkEye 360; GPS; miniature CubeSats for education and research; and military/defense satellites.

Loading next visibility...
Identifier
41921, 2017-003E
Orbit
LEO
Country
Flag of USUS
Related business
Manufacturer
OATK SSG Gilbert
Mission
Operational Commercial Communications
Bus & Motor
ELITEBUS, Unknown motor
Mass
860 kg wet, 700 kg dry
Launch date (UTC)
2017-01-14 (9 years ago)
Launch vehicle
FALCON 9
Launch site
Air Force Western Test Range (AFWTR)
Object type
Payload
Rocket body
Debris
Shape & HBR
Trap Box + 2 Pan, 4.7 m
Radar Cross Section
14.423 m², Large (>1 m²)

Expand to show TLE details & history
Last TLE update: 18 hours ago

TLE from 18 hours ago
0 IRIDIUM 105
1 41921U 17003E   25260.86125043  .00000281  00000-0  93210-4 0  9992
2 41921  86.4048 170.6827 0002226  87.7598 272.3853 14.34207201456106
Epoch: 2025-09-17T20:40Z
TLE epoch observation values (Epoch: 2025-09-17T20:40:12.037Z)
Latitude
0.00003°
Longitude
-136.39858°
Altitude
780.687 km
Speed
7.464 km/s
True Right ascension
11h 22m 43s
True Declination
0° 00' 00"
Sunlit
Object was in daylight at epoch
Visualization orbit readout
Latitude
Unknown
Longitude
Unknown
Altitude
Unknown
Speed
Unknown
Apparent Right ascension
Unknown
Apparent Declination
Unknown
Sunlit
N/A
Visualization observer readout
Local Sidereal Time
07:56:07
Azimuth
Unknown
Elevation
Unknown
Doppler factor
Unknown
Orbital elements
Apogee altitude
776.259 km
Perigee altitude
773.074 km
Semi-major axis
7,152.804 km
Eccentricity
0.00022
Inclination
86.4048°
RAAN
170.6827°
Arg. of periapsis
87.7598°
True anomaly
272.35981°
Mean anomaly
272.3853°
Eccentric anomaly
272.37256°
Mean motion
3.5878 °/min
Orbital period
100.34 mins
BSTAR
0.00009321
Loading maneuver chart data...
Computing Atmospheric mass density...
Loading historical data...
Loading historical data...
Loading historical data...
Loading historical data...
Loading historical data...
Loading historical data...
Loading historical data...

Documentation

Showing up to 5 results
|